Weather History for Buckhannon, WV

Change the Weather History Date:

Friday, March 2, 2012

  Actual Average (KEKN) Record (KEKN)
Temperature  
Mean Temperature 48 °F 36 °F  
Max Temperature 62 °F 47 °F 74 °F (1972)
Min Temperature 33 °F 24 °F -15 °F (1978)
Degree Days  
Heating Degree Days 18 29  
Month to date heating degree days 59  
Since 1 July heating degree days 4380  
Cooling Degree Days 0 0  
Month to date cooling degree days 0  
Year to date cooling degree days 0  
Moisture  
Dew Point 39 °F    
Average Humidity 76    
Maximum Humidity 100    
Minimum Humidity 39    
Precipitation  
Precipitation 0.27 in 0.12 in 0.94 in (1945)
Month to date precipitation 0.24  
Year to date precipitation 6.57  
Snow  
Snow 0.00 in - - ()
Month to date snowfall  
Since 1 September snowfall  
Snow Depth -    
Sea Level Pressure  
Sea Level Pressure 29.75 in    
Wind  
Wind Speed 4 mph (South)    
Max Wind Speed 28 mph    
Max Gust Speed 36 mph    
Visibility 9 miles    
Events Rain    
T = Trace of Precipitation, MM = Missing Value Source: NWS Daily Summary

Daily Weather History Graph

Daily Weather History Graph

Search for Another Location

Airport:

Trip Planner

Search our weather history database for the weather conditions in past years. The results will help you decide how hot, cold, wet, or windy it might be!

Date:

Astronomy

Mar. 02, 2012 Rise Set
Actual Time 6:51 AM EST 6:15 PM EST
Civil Twilight 6:24 AM EST 6:42 PM EST
Nautical Twilight 5:53 AM EST 7:13 PM EST
Astronomical Twilight 5:22 AM EST 7:43 PM EST
Moon 12:28 PM EST (3/2) 2:37 AM EST (3/2)
Length of Visible Light 12h 17m
Length of Day
11h 23m
Waxing Gibbous, 66% of the Moon is Illuminated
Mar 2
Waxing Gibbous
Mar 8
Full
Mar 14
Last Quarter
Mar 22
New
Mar 30
First Quarter

Hourly Weather History & Observations

Time (EST) Temp. Windchill Dew Point Humidity Pressure Visibility Wind Dir Wind Speed Gust Speed Precip Events Conditions
12:15 AM 37.4 °F - 32.0 °F 81% 29.91 in 10.0 mi Calm Calm - N/A   Clear
12:35 AM 35.6 °F - 32.0 °F 87% 29.91 in 10.0 mi Calm Calm - N/A   Clear
12:55 AM 35.6 °F - 32.0 °F 87% 29.91 in 10.0 mi Calm Calm - N/A   Clear
1:15 AM 35.6 °F - 32.0 °F 87% 29.91 in 10.0 mi Calm Calm - N/A   Clear
1:35 AM 35.6 °F - 32.0 °F 87% 29.91 in 10.0 mi Calm Calm - N/A   Clear
1:55 AM 35.6 °F - 32.0 °F 87% 29.90 in 10.0 mi Calm Calm - N/A   Clear
2:15 AM 33.8 °F - 32.0 °F 93% 29.90 in 10.0 mi Calm Calm - N/A   Clear
2:35 AM 33.8 °F - 32.0 °F 93% 29.90 in 10.0 mi Calm Calm - N/A   Clear
2:55 AM 33.8 °F - 33.8 °F 100% 29.88 in 10.0 mi Calm Calm - N/A   Clear
3:15 AM 35.6 °F - 32.0 °F 87% 29.88 in 10.0 mi Calm Calm - N/A   Clear
3:35 AM 35.6 °F - 32.0 °F 87% 29.88 in 10.0 mi Calm Calm - N/A   Clear
3:55 AM 35.6 °F - 32.0 °F 87% 29.88 in 10.0 mi Calm Calm - N/A   Clear
4:15 AM 35.6 °F - 32.0 °F 87% 29.88 in 10.0 mi Calm Calm - N/A   Clear
4:35 AM 35.6 °F - 32.0 °F 87% 29.88 in 10.0 mi Calm Calm - N/A   Clear
4:55 AM 37.4 °F - 32.0 °F 81% 29.88 in 10.0 mi Calm Calm - N/A   Clear
5:15 AM 35.6 °F - 32.0 °F 87% 29.87 in 10.0 mi Calm Calm - N/A   Clear
5:35 AM 35.6 °F - 32.0 °F 87% 29.87 in 10.0 mi Calm Calm - N/A   Clear
5:55 AM 35.6 °F - 32.0 °F 87% 29.87 in 10.0 mi Calm Calm - N/A   Clear
6:15 AM 35.6 °F 30.7 °F 32.0 °F 87% 29.86 in 10.0 mi East 5.8 mph - N/A   Clear
6:35 AM 37.4 °F - 32.0 °F 81% 29.85 in 10.0 mi Calm Calm - N/A   Clear
6:55 AM 37.4 °F - 30.2 °F 75% 29.85 in 10.0 mi Calm Calm - N/A   Clear
7:15 AM 39.2 °F - 30.2 °F 70% 29.86 in 10.0 mi Calm Calm - N/A   Clear
7:35 AM 37.4 °F - 32.0 °F 81% 29.85 in 10.0 mi Calm Calm - N/A   Clear
7:55 AM 39.2 °F - 32.0 °F 75% 29.85 in 10.0 mi Calm Calm - N/A   Clear
8:15 AM 39.2 °F - 32.0 °F 75% 29.84 in 10.0 mi Calm Calm - N/A   Clear
8:35 AM 42.8 °F - 33.8 °F 70% 29.84 in 10.0 mi Calm Calm - N/A   Clear
8:55 AM 46.4 °F - 33.8 °F 62% 29.82 in 10.0 mi Calm Calm - N/A   Clear
9:15 AM 50.0 °F - 35.6 °F 58% 29.82 in 10.0 mi Calm Calm - N/A   Clear
9:55 AM 57.2 °F - 37.4 °F 48% 29.78 in 10.0 mi Calm Calm - N/A   Clear
10:15 AM 59.0 °F - 39.2 °F 48% 29.78 in 10.0 mi South 9.2 mph - N/A   Clear
10:35 AM 59.0 °F - 39.2 °F 48% 29.77 in 10.0 mi South 6.9 mph - N/A   Clear
10:55 AM 60.8 °F - 37.4 °F 42% 29.75 in 10.0 mi South 6.9 mph - N/A   Clear
11:15 AM 62.6 °F - 37.4 °F 39% 29.75 in 10.0 mi South 11.5 mph - N/A   Clear
11:35 AM 62.6 °F - 39.2 °F 42% 29.74 in 10.0 mi South 18.4 mph 24.2 mph N/A   Clear
11:55 AM 60.8 °F - 37.4 °F 42% 29.74 in 10.0 mi South 11.5 mph 17.3 mph N/A   Clear
12:15 PM 60.8 °F - 37.4 °F 42% 29.75 in 10.0 mi South 12.7 mph 23.0 mph N/A   Clear
12:35 PM 57.2 °F - 39.2 °F 51% 29.75 in 10.0 mi South 27.6 mph 35.7 mph N/A Rain Light Rain
12:55 PM 51.8 °F - 44.6 °F 76% 29.76 in 5.0 mi South 15.0 mph 25.3 mph 0.01 in   Haze
1:15 PM 50.0 °F - 46.4 °F 87% 29.76 in 3.0 mi South 10.4 mph 17.3 mph N/A Rain Rain
1:35 PM 50.0 °F - 46.4 °F 87% 29.73 in 10.0 mi SSE 9.2 mph - 0.01 in Rain Light Rain
1:55 PM 51.8 °F - 44.6 °F 76% 29.71 in 10.0 mi South 15.0 mph - 0.01 in   Clear
2:15 PM 50.0 °F - 44.6 °F 82% 29.70 in 8.0 mi SSE 16.1 mph - N/A   Partly Cloudy
2:35 PM 51.8 °F - 44.6 °F 76% 29.69 in 10.0 mi SSE 12.7 mph 17.3 mph N/A Rain Light Rain
2:55 PM 50.0 °F - 44.6 °F 82% 29.66 in 7.0 mi SSE 9.2 mph - N/A   Light Drizzle
3:15 PM 51.8 °F - 44.6 °F 76% 29.65 in 10.0 mi SSE 8.1 mph - N/A   Clear
3:35 PM 51.8 °F - 44.6 °F 76% 29.63 in 10.0 mi SE 6.9 mph - N/A   Clear
3:55 PM 51.8 °F - 44.6 °F 76% 29.62 in 10.0 mi South 10.4 mph 17.3 mph N/A Rain Light Rain
4:15 PM 53.6 °F - 46.4 °F 77% 29.61 in 6.0 mi South 11.5 mph - N/A   Haze
4:35 PM 55.4 °F - 46.4 °F 72% 29.59 in 10.0 mi South 11.5 mph - N/A   Scattered Clouds
4:55 PM 55.4 °F - 46.4 °F 72% 29.58 in 10.0 mi South 13.8 mph - N/A   Scattered Clouds
5:15 PM 57.2 °F - 46.4 °F 67% 29.56 in 10.0 mi South 12.7 mph - N/A   Mostly Cloudy
5:55 PM 59.0 °F - 48.2 °F 67% 29.56 in 10.0 mi South 12.7 mph 17.3 mph N/A   Mostly Cloudy
6:15 PM 59.0 °F - 48.2 °F 67% 29.55 in 10.0 mi South 15.0 mph 20.7 mph N/A   Partly Cloudy
6:55 PM 59.0 °F - 48.2 °F 67% 29.52 in 10.0 mi South 13.8 mph 27.6 mph N/A   Clear
7:15 PM 60.8 °F - 48.2 °F 63% 29.53 in 10.0 mi South 13.8 mph 25.3 mph N/A   Clear
7:35 PM 60.8 °F - 48.2 °F 63% 29.53 in 10.0 mi South 11.5 mph - N/A   Clear
7:55 PM 59.0 °F - 50.0 °F 72% 29.54 in 8.0 mi South 16.1 mph 23.0 mph N/A Rain Light Rain
8:35 PM 57.2 °F - 53.6 °F 88% 29.59 in 2.0 mi SW 27.6 mph 35.7 mph 0.17 in Rain Heavy Rain
8:55 PM 55.4 °F - 55.4 °F 100% 29.58 in 8.0 mi SSW 17.3 mph 23.0 mph 0.22 in   Mostly Cloudy
9:15 PM 55.4 °F - 55.4 °F 100% 29.58 in 3.0 mi South 18.4 mph 25.3 mph 0.01 in   Mostly Cloudy
9:35 PM 53.6 °F - 53.6 °F 100% 29.59 in 4.0 mi South 17.3 mph - 0.01 in   Overcast
9:55 PM 53.6 °F - 53.6 °F 100% 29.59 in 4.0 mi South 17.3 mph 21.9 mph 0.03 in   Overcast
10:15 PM 53.6 °F - 53.6 °F 100% 29.59 in 10.0 mi South 12.7 mph - N/A   Mostly Cloudy
10:35 PM 53.6 °F - 53.6 °F 100% 29.59 in 6.0 mi SSW 12.7 mph - N/A   Mostly Cloudy
10:55 PM 55.4 °F - 55.4 °F 100% 29.58 in 10.0 mi SSW 12.7 mph - N/A   Mostly Cloudy
11:15 PM 55.4 °F - 55.4 °F 100% 29.57 in 10.0 mi SW 13.8 mph 17.3 mph N/A   Mostly Cloudy
11:35 PM 55.4 °F - 55.4 °F 100% 29.57 in 3.0 mi SW 9.2 mph - 0.02 in Rain Rain
11:55 PM 55.4 °F - 55.4 °F 100% 29.58 in 3.0 mi SW 9.2 mph - 0.04 in Rain Rain